Time,TemperatureF,DewpointF,PressureIn,WindDirection,WindDirectionDegrees,WindSpeedMPH,WindSpeedGustMPH,Humidity,HourlyPrecipIn,Conditions,Clouds,dailyrainin,SoftwareType,DateUTC
2013-01-10 00:03:00,31.0,28.0,-100.00,SW,225,6.0,7.0,86,0.00,,,-99.99,,2013-01-10 05:03:00,
2013-01-10 00:12:00,31.0,27.0,-100.00,SW,230,6.0,7.0,85,0.00,,,-99.99,,2013-01-10 05:12:00,
2013-01-10 00:22:00,31.0,27.0,-100.00,SW,230,6.0,8.0,84,0.00,,,-99.99,,2013-01-10 05:22:00,
2013-01-10 00:42:00,30.0,26.0,-100.00,WSW,240,4.0,6.0,84,0.00,,,-99.99,,2013-01-10 05:42:00,
2013-01-10 00:52:00,31.0,27.0,-100.00,West,270,3.0,5.0,85,0.00,,,-99.99,,2013-01-10 05:52:00,
2013-01-10 01:02:00,30.0,26.0,-100.00,WNW,295,0.0,2.0,84,0.00,,,-99.99,,2013-01-10 06:02:00,
2013-01-10 01:12:00,30.0,26.0,-100.00,West,270,1.0,2.0,84,0.00,,,-99.99,,2013-01-10 06:12:00,
2013-01-10 01:22:00,29.0,26.0,-100.00,West,270,1.0,4.0,84,0.00,,,-99.99,,2013-01-10 06:22:00,
2013-01-10 01:32:00,29.0,25.0,-100.00,West,265,1.0,2.0,84,0.00,,,-99.99,,2013-01-10 06:32:00,
2013-01-10 01:42:00,29.0,25.0,-100.00,WSW,255,1.0,4.0,84,0.00,,,-99.99,,2013-01-10 06:42:00,
2013-01-10 01:52:00,29.0,25.0,-100.00,West,270,2.0,6.0,85,0.00,,,-99.99,,2013-01-10 06:52:00,
2013-01-10 02:02:00,29.0,25.0,-100.00,West,275,3.0,5.0,85,0.00,,,-99.99,,2013-01-10 07:02:00,
2013-01-10 02:12:00,29.0,25.0,-100.00,West,265,2.0,6.0,84,0.00,,,-99.99,,2013-01-10 07:12:00,
2013-01-10 02:22:00,29.0,25.0,-100.00,West,265,4.0,5.0,84,0.00,,,-99.99,,2013-01-10 07:22:00,
2013-01-10 02:32:00,29.0,24.0,-100.00,West,275,1.0,6.0,84,0.00,,,-99.99,,2013-01-10 07:32:00,
2013-01-10 02:42:00,29.0,25.0,-100.00,WNW,285,0.0,4.0,84,0.00,,,-99.99,,2013-01-10 07:42:00,
2013-01-10 02:52:00,29.0,25.0,-100.00,NW,305,1.0,2.0,84,0.00,,,-99.99,,2013-01-10 07:52:00,
2013-01-10 03:02:00,29.0,25.0,-100.00,NW,310,1.0,2.0,84,0.00,,,-99.99,,2013-01-10 08:02:00,
2013-01-10 03:12:00,29.0,25.0,-100.00,WNW,285,0.0,3.0,84,0.00,,,-99.99,,2013-01-10 08:12:00,
2013-01-10 03:22:00,28.0,24.0,-100.00,NNW,335,1.0,2.0,85,0.00,,,-99.99,,2013-01-10 08:22:00,
2013-01-10 03:32:00,27.0,23.0,-100.00,North,0,2.0,4.0,85,0.00,,,-99.99,,2013-01-10 08:32:00,
2013-01-10 03:42:00,27.0,24.0,-100.00,North,355,1.0,3.0,86,0.00,,,-99.99,,2013-01-10 08:42:00,
2013-01-10 03:52:00,26.0,23.0,-100.00,North,10,2.0,3.0,86,0.00,,,-99.99,,2013-01-10 08:52:00,
2013-01-10 04:02:00,27.0,24.0,-100.00,North,0,1.0,4.0,88,0.00,,,-99.99,,2013-01-10 09:02:00,
2013-01-10 04:12:00,27.0,24.0,-100.00,NW,315,0.0,1.0,87,0.00,,,-99.99,,2013-01-10 09:12:00,
2013-01-10 04:22:00,28.0,25.0,-100.00,NW,320,0.0,3.0,88,0.00,,,-99.99,,2013-01-10 09:22:00,
2013-01-10 04:32:00,28.0,24.0,-100.00,West,275,0.0,3.0,87,0.00,,,-99.99,,2013-01-10 09:32:00,
2013-01-10 04:42:00,28.0,24.0,-100.00,West,270,0.0,3.0,87,0.00,,,-99.99,,2013-01-10 09:42:00,
2013-01-10 04:52:00,28.0,25.0,-100.00,WNW,295,0.0,3.0,87,0.00,,,-99.99,,2013-01-10 09:52:00,
2013-01-10 05:03:00,27.0,24.0,-100.00,WNW,300,0.0,2.0,87,0.00,,,-99.99,,2013-01-10 10:03:00,
2013-01-10 05:12:00,27.0,24.0,-100.00,NW,315,0.0,1.0,87,0.00,,,-99.99,,2013-01-10 10:12:00,
2013-01-10 05:22:00,26.0,23.0,-100.00,North,350,1.0,2.0,88,0.00,,,-99.99,,2013-01-10 10:22:00,
2013-01-10 05:32:00,27.0,24.0,-100.00,North,0,0.0,3.0,88,0.00,,,-99.99,,2013-01-10 10:32:00,
2013-01-10 05:42:00,27.0,24.0,-100.00,North,10,1.0,3.0,89,0.00,,,-99.99,,2013-01-10 10:42:00,
2013-01-10 05:52:00,27.0,24.0,-100.00,North,10,1.0,4.0,88,0.00,,,-99.99,,2013-01-10 10:52:00,
2013-01-10 06:03:00,27.0,24.0,-100.00,North,5,0.0,3.0,88,0.00,,,-99.99,,2013-01-10 11:03:00,
2013-01-10 06:12:00,27.0,24.0,-100.00,North,0,0.0,1.0,88,0.00,,,-99.99,,2013-01-10 11:12:00,
2013-01-10 06:22:00,26.0,23.0,-100.00,North,0,0.0,4.0,89,0.00,,,-99.99,,2013-01-10 11:22:00,
2013-01-10 06:33:00,26.0,24.0,-100.00,North,0,0.0,1.0,89,0.00,,,-99.99,,2013-01-10 11:33:00,
2013-01-10 06:43:00,26.0,23.0,-100.00,South,185,0.0,2.0,89,0.00,,,-99.99,,2013-01-10 11:43:00,
2013-01-10 06:52:00,26.0,24.0,-100.00,NNE,15,2.0,3.0,89,0.00,,,-99.99,,2013-01-10 11:52:00,
2013-01-10 07:03:00,26.0,24.0,-100.00,North,355,1.0,3.0,90,0.00,,,-99.99,,2013-01-10 12:03:00,
2013-01-10 07:12:00,27.0,24.0,-100.00,North,0,2.0,3.0,89,0.00,,,-99.99,,2013-01-10 12:12:00,
2013-01-10 07:33:00,24.0,22.0,-100.00,WNW,295,0.0,2.0,88,0.00,,,-99.99,,2013-01-10 12:33:00,
2013-01-10 07:43:00,25.0,22.0,-100.00,SE,130,0.0,2.0,89,0.00,,,-99.99,,2013-01-10 12:43:00,
2013-01-10 07:53:00,26.0,23.0,-100.00,SE,130,1.0,1.0,90,0.00,,,-99.99,,2013-01-10 12:53:00,
2013-01-10 08:02:00,25.0,23.0,-100.00,SE,130,1.0,3.0,90,0.00,,,-99.99,,2013-01-10 13:02:00,
2013-01-10 08:12:00,26.0,23.0,-100.00,WNW,295,0.0,6.0,90,0.00,,,-99.99,,2013-01-10 13:12:00,
2013-01-10 08:22:00,26.0,24.0,-100.00,SSE,150,1.0,3.0,90,0.00,,,-99.99,,2013-01-10 13:22:00,
2013-01-10 08:32:00,26.0,24.0,-100.00,East,85,0.0,2.0,89,0.00,,,-99.99,,2013-01-10 13:32:00,
2013-01-10 08:42:00,27.0,24.0,-100.00,ENE,75,1.0,3.0,89,0.00,,,-99.99,,2013-01-10 13:42:00,
2013-01-10 08:52:00,28.0,25.0,-100.00,ESE,115,1.0,3.0,88,0.00,,,-99.99,,2013-01-10 13:52:00,
2013-01-10 09:02:00,28.0,25.0,-100.00,NE,55,1.0,4.0,88,0.00,,,-99.99,,2013-01-10 14:02:00,
2013-01-10 09:12:00,28.0,25.0,-100.00,ENE,70,3.0,4.0,88,0.00,,,-99.99,,2013-01-10 14:12:00,
2013-01-10 09:22:00,29.0,26.0,-100.00,East,80,3.0,5.0,88,0.00,,,-99.99,,2013-01-10 14:22:00,
2013-01-10 09:33:00,29.0,26.0,-100.00,East,85,2.0,6.0,87,0.00,,,-99.99,,2013-01-10 14:33:00,
2013-01-10 09:43:00,29.0,26.0,-100.00,ENE,75,6.0,8.0,85,0.00,,,-99.99,,2013-01-10 14:43:00,
2013-01-10 09:53:00,30.0,26.0,-100.00,East,80,5.0,7.0,84,0.00,,,-99.99,,2013-01-10 14:53:00,
2013-01-10 10:03:00,31.0,27.0,-100.00,East,85,6.0,8.0,84,0.55,,,-99.99,,2013-01-10 15:03:00,
2013-01-10 10:12:00,32.0,27.0,-100.00,East,90,6.0,8.0,83,0.00,,,-99.99,,2013-01-10 15:12:00,
2013-01-10 10:23:00,32.0,28.0,-100.00,East,90,7.0,9.0,84,0.00,,,-99.99,,2013-01-10 15:23:00,
2013-01-10 10:33:00,32.0,28.0,-100.00,East,90,8.0,11.0,83,0.55,,,-99.99,,2013-01-10 15:33:00,
2013-01-10 10:43:00,34.0,29.0,-100.00,East,90,6.0,9.0,84,0.00,,,-99.99,,2013-01-10 15:43:00,
2013-01-10 10:53:00,34.0,29.0,-100.00,East,95,7.0,9.0,84,0.00,,,-99.99,,2013-01-10 15:53:00,
2013-01-10 11:03:00,33.0,29.0,-100.00,East,85,10.0,12.0,83,0.00,,,-99.99,,2013-01-10 16:03:00,
2013-01-10 11:13:00,35.0,30.0,-100.00,East,80,9.0,12.0,82,0.00,,,-99.99,,2013-01-10 16:13:00,
2013-01-10 11:23:00,34.0,29.0,-100.00,East,95,9.0,12.0,81,0.00,,,-99.99,,2013-01-10 16:23:00,
2013-01-10 11:33:00,34.0,30.0,-100.00,East,95,9.0,11.0,82,0.00,,,-99.99,,2013-01-10 16:33:00,
2013-01-10 11:43:00,35.0,30.0,-100.00,East,90,9.0,12.0,82,0.00,,,-99.99,,2013-01-10 16:43:00,
2013-01-10 11:52:00,35.0,30.0,-100.00,East,90,8.0,11.0,83,0.00,,,-99.99,,2013-01-10 16:52:00,
2013-01-10 12:03:00,35.0,30.0,-100.00,East,100,10.0,12.0,82,0.00,,,-99.99,,2013-01-10 17:03:00,
2013-01-10 12:12:00,36.0,30.0,-100.00,East,100,11.0,14.0,80,0.00,,,-99.99,,2013-01-10 17:12:00,
2013-01-10 12:22:00,36.0,30.0,-100.00,ESE,110,10.0,13.0,79,0.00,,,-99.99,,2013-01-10 17:22:00,
2013-01-10 12:33:00,37.0,31.0,-100.00,ESE,120,7.0,13.0,79,0.00,,,-99.99,,2013-01-10 17:33:00,
2013-01-10 12:42:00,37.0,31.0,-100.00,ESE,120,9.0,11.0,78,0.00,,,-99.99,,2013-01-10 17:42:00,
2013-01-10 12:53:00,37.0,30.0,-100.00,ESE,115,11.0,12.0,75,0.00,,,-99.99,,2013-01-10 17:53:00,
2013-01-10 13:03:00,37.0,30.0,-100.00,ESE,115,12.0,14.0,74,0.00,,,-99.99,,2013-01-10 18:03:00,
2013-01-10 13:12:00,38.0,31.0,-100.00,ESE,110,11.0,14.0,75,0.00,,,-99.99,,2013-01-10 18:12:00,
2013-01-10 13:23:00,38.0,31.0,-100.00,ESE,110,11.0,15.0,74,0.00,,,-99.99,,2013-01-10 18:23:00,
2013-01-10 13:33:00,39.0,31.0,-100.00,ESE,115,12.0,16.0,73,0.00,,,-99.99,,2013-01-10 18:33:00,
2013-01-10 13:43:00,39.0,30.0,-100.00,ESE,115,14.0,17.0,71,0.00,,,-99.99,,2013-01-10 18:43:00,
2013-01-10 13:52:00,38.0,30.0,-100.00,ESE,110,12.0,16.0,72,0.00,,,-99.99,,2013-01-10 18:52:00,
2013-01-10 14:03:00,38.0,31.0,-100.00,ESE,110,11.0,14.0,73,0.00,,,-99.99,,2013-01-10 19:03:00,
2013-01-10 14:13:00,38.0,31.0,-100.00,ESE,110,9.0,16.0,73,0.00,,,-99.99,,2013-01-10 19:13:00,
2013-01-10 14:23:00,38.0,31.0,-100.00,ESE,105,10.0,15.0,74,0.00,,,-99.99,,2013-01-10 19:23:00,
2013-01-10 14:33:00,38.0,31.0,-100.00,ESE,105,11.0,14.0,74,0.00,,,-99.99,,2013-01-10 19:33:00,
2013-01-10 14:43:00,38.0,31.0,-100.00,ESE,115,12.0,14.0,73,0.00,,,-99.99,,2013-01-10 19:43:00,
2013-01-10 14:53:00,38.0,31.0,-100.00,ESE,120,11.0,14.0,74,0.00,,,-99.99,,2013-01-10 19:53:00,
2013-01-10 15:03:00,38.0,31.0,-100.00,ESE,120,9.0,15.0,74,0.00,,,-99.99,,2013-01-10 20:03:00,
2013-01-10 15:13:00,39.0,31.0,-100.00,ESE,115,9.0,12.0,73,0.00,,,-99.99,,2013-01-10 20:13:00,
2013-01-10 15:24:00,39.0,32.0,-100.00,East,95,7.0,11.0,75,0.00,,,-99.99,,2013-01-10 20:24:00,
2013-01-10 15:33:00,38.0,31.0,-100.00,East,85,8.0,11.0,76,0.00,,,-99.99,,2013-01-10 20:33:00,
2013-01-10 15:43:00,38.0,31.0,-100.00,East,90,9.0,12.0,77,0.00,,,-99.99,,2013-01-10 20:43:00,
2013-01-10 15:53:00,38.0,32.0,-100.00,East,85,9.0,11.0,78,0.00,,,-99.99,,2013-01-10 20:53:00,
2013-01-10 16:04:00,37.0,32.0,-100.00,East,90,8.0,10.0,79,0.00,,,-99.99,,2013-01-10 21:04:00,
2013-01-10 16:12:00,37.0,32.0,-100.00,East,95,8.0,11.0,81,0.00,,,-99.99,,2013-01-10 21:12:00,
2013-01-10 16:23:00,37.0,32.0,-100.00,East,95,9.0,11.0,81,0.00,,,-99.99,,2013-01-10 21:23:00,
2013-01-10 16:33:00,37.0,32.0,-100.00,ESE,110,7.0,10.0,81,0.00,,,-99.99,,2013-01-10 21:33:00,
2013-01-10 16:42:00,37.0,32.0,-100.00,East,100,6.0,9.0,81,0.00,,,-99.99,,2013-01-10 21:42:00,
2013-01-10 16:53:00,37.0,32.0,-100.00,East,95,6.0,8.0,81,0.00,,,-99.99,,2013-01-10 21:53:00,
2013-01-10 17:04:00,37.0,31.0,-100.00,East,95,9.0,12.0,80,0.00,,,-99.99,,2013-01-10 22:04:00,
2013-01-10 17:12:00,37.0,31.0,-100.00,East,85,6.0,12.0,80,0.00,,,-99.99,,2013-01-10 22:12:00,
2013-01-10 17:26:00,37.0,32.0,-100.00,East,85,6.0,9.0,81,0.00,,,-99.99,,2013-01-10 22:26:00,
2013-01-10 17:33:00,36.0,31.0,-100.00,East,100,7.0,9.0,82,0.00,,,-99.99,,2013-01-10 22:33:00,
2013-01-10 17:43:00,37.0,31.0,-100.00,ESE,110,7.0,10.0,81,0.00,,,-99.99,,2013-01-10 22:43:00,
2013-01-10 18:03:00,36.0,31.0,-100.00,ESE,105,7.0,9.0,81,0.00,,,-99.99,,2013-01-10 23:03:00,
2013-01-10 18:13:00,36.0,31.0,-100.00,ESE,105,9.0,11.0,81,0.00,,,-99.99,,2013-01-10 23:13:00,
2013-01-10 18:23:00,36.0,31.0,-100.00,East,100,7.0,12.0,81,0.00,,,-99.99,,2013-01-10 23:23:00,
2013-01-10 18:33:00,36.0,31.0,-100.00,East,95,9.0,11.0,81,0.00,,,-99.99,,2013-01-10 23:33:00,
2013-01-10 18:43:00,36.0,31.0,-100.00,East,90,7.0,12.0,81,0.00,,,-99.99,,2013-01-10 23:43:00,
2013-01-10 18:53:00,36.0,31.0,-100.00,East,95,6.0,9.0,82,0.00,,,-99.99,,2013-01-10 23:53:00,
2013-01-10 19:03:00,36.0,31.0,-100.00,East,95,6.0,8.0,83,0.00,,,-99.99,,2013-01-11 00:03:00,
2013-01-10 19:13:00,36.0,31.0,-100.00,East,90,6.0,8.0,84,0.00,,,-99.99,,2013-01-11 00:13:00,
2013-01-10 19:23:00,36.0,32.0,-100.00,East,85,6.0,8.0,83,0.00,,,-99.99,,2013-01-11 00:23:00,
2013-01-10 19:33:00,36.0,31.0,-100.00,East,95,7.0,9.0,84,0.00,,,-99.99,,2013-01-11 00:33:00,
2013-01-10 19:42:00,36.0,31.0,-100.00,East,85,9.0,12.0,84,0.00,,,-99.99,,2013-01-11 00:42:00,
2013-01-10 19:52:00,36.0,31.0,-100.00,East,85,9.0,14.0,83,0.00,,,-99.99,,2013-01-11 00:52:00,
2013-01-10 20:03:00,37.0,32.0,-100.00,East,80,7.0,12.0,82,0.00,,,-99.99,,2013-01-11 01:03:00,
2013-01-10 20:13:00,37.0,31.0,-100.00,East,80,7.0,11.0,81,0.00,,,-99.99,,2013-01-11 01:13:00,
2013-01-10 20:23:00,36.0,31.0,-100.00,East,85,9.0,12.0,81,0.00,,,-99.99,,2013-01-11 01:23:00,
2013-01-10 20:34:00,36.0,31.0,-100.00,East,85,9.0,12.0,82,0.00,,,-99.99,,2013-01-11 01:34:00,
2013-01-10 20:43:00,36.0,31.0,-100.00,East,85,10.0,14.0,82,0.00,,,-99.99,,2013-01-11 01:43:00,
2013-01-10 20:53:00,37.0,31.0,-100.00,East,80,10.0,12.0,81,0.00,,,-99.99,,2013-01-11 01:53:00,
2013-01-10 21:03:00,37.0,31.0,-100.00,East,80,9.0,14.0,81,0.00,,,-99.99,,2013-01-11 02:03:00,
2013-01-10 21:13:00,37.0,32.0,-100.00,East,80,10.0,14.0,81,0.00,,,-99.99,,2013-01-11 02:13:00,
2013-01-10 21:23:00,37.0,31.0,-100.00,ENE,75,14.0,22.0,80,0.00,,,-99.99,,2013-01-11 02:23:00,
2013-01-10 21:33:00,36.0,32.0,-100.00,East,85,11.0,17.0,83,0.00,,,-99.99,,2013-01-11 02:33:00,
2013-01-10 21:43:00,36.0,32.0,-100.00,ESE,105,11.0,18.0,83,0.00,,,-99.99,,2013-01-11 02:43:00,
2013-01-10 21:53:00,36.0,32.0,-100.00,East,90,9.0,16.0,84,0.00,,,-99.99,,2013-01-11 02:53:00,
2013-01-10 22:03:00,36.0,32.0,-100.00,East,95,10.0,12.0,84,0.00,,,-99.99,,2013-01-11 03:03:00,
2013-01-10 22:12:00,36.0,32.0,-100.00,East,90,12.0,15.0,84,0.00,,,-99.99,,2013-01-11 03:12:00,
2013-01-10 22:33:00,36.0,32.0,-100.00,East,95,11.0,16.0,84,1.10,,,-99.99,,2013-01-11 03:33:00,
2013-01-10 22:43:00,36.0,33.0,-100.00,East,85,11.0,14.0,89,1.10,,,-99.99,,2013-01-11 03:43:00,
2013-01-10 22:53:00,35.0,33.0,-100.00,East,90,11.0,14.0,90,4.53,,,-99.99,,2013-01-11 03:53:00,
2013-01-10 23:02:00,35.0,33.0,-100.00,East,85,8.0,14.0,90,0.00,,,-99.99,,2013-01-11 04:02:00,
2013-01-10 23:12:00,36.0,33.0,-100.00,East,90,9.0,13.0,90,0.00,,,-99.99,,2013-01-11 04:12:00,
2013-01-10 23:22:00,36.0,33.0,-100.00,East,90,9.0,11.0,90,0.00,,,-99.99,,2013-01-11 04:22:00,
2013-01-10 23:33:00,36.0,33.0,-100.00,East,85,8.0,11.0,90,0.00,,,-99.99,,2013-01-11 04:33:00,
2013-01-10 23:43:00,36.0,33.0,-100.00,East,90,10.0,12.0,89,0.00,,,-99.99,,2013-01-11 04:43:00,
2013-01-10 23:52:00,36.0,33.0,-100.00,East,95,9.0,13.0,88,0.00,,,-99.99,,2013-01-11 04:52:00,